Overview Statistics Trail Chart Weather Telemetry Raw packets
 

This is the latest recevied weather packets stored in our database for station/object KB3AWQ. If no packets are shown the sender has not sent any weather packets the latest 10 day(s).

<< 4 5 6 7 8 9 10 >>
Time Temp. Humidity Pressure Rain* Wind** Luminosity Snow
1788528268 25.56° C 85% 1015 hPa 0 mm - 170 W/m² -
1788527966 26.11° C 85% 1015 hPa 0 mm - 209 W/m² -
1788527668 25.56° C 85% 1015 hPa 0 mm - 358 W/m² -
1788527367 25.56° C 85% 1015 hPa 0 mm - 417 W/m² -
1788527067 25.56° C 87% 1014.9 hPa 0 mm - 392 W/m² -
1788526767 25° C 89% 1015 hPa 0 mm - 363 W/m² -
1788526468 24.44° C 91% 1015.1 hPa 0 mm - 323 W/m² -
1788526168 23.89° C 92% 1015.2 hPa 0 mm - 283 W/m² -
1788525866 23.89° C 92% 1015.1 hPa 0 mm - 156 W/m² -
1788525567 23.89° C 92% 1015 hPa 0 mm - 129 W/m² -
1788525267 23.89° C 92% 1015.1 hPa 0 mm - 129 W/m² -
1788524997 23.89° C 92% 1015.1 hPa 0 mm - 107 W/m² -
1788524667 24.44° C 92% 1015.1 hPa 0 mm - 147 W/m² -
1788524366 24.44° C 92% 1015.2 hPa 0 mm - 132 W/m² -
1788524066 24.44° C 91% 1015.2 hPa 0 mm - 108 W/m² -
1788523766 25° C 90% 1015.1 hPa 0 mm - 129 W/m² -
1788523466 25° C 88% 1015.1 hPa 0 mm - 141 W/m² -
1788523167 24.44° C 90% 1015 hPa 0 mm - 163 W/m² -
1788522868 23.89° C 91% 1015 hPa 0 mm - 132 W/m² -
1788522566 23.89° C 92% 1015 hPa 0 mm - 132 W/m² -
1788522266 23.33° C 93% 1014.8 hPa 0 mm - 119 W/m² -
1788521966 23.33° C 94% 1014.7 hPa 0 mm - 105 W/m² -
1788521667 22.78° C 94% 1014.7 hPa 0 mm - 92 W/m² -
1788521367 22.78° C 95% 1014.7 hPa 0 mm - 77 W/m² -
1788521066 22.22° C 96% 1014.7 hPa 0 mm - 65 W/m² -

* Rain latest hour (hover to see other rain measurements)
** Current wind speed in m/s (hover to see current wind gust speed)